Massena, NY

4:23 AM EST on February 22, 2017 (GMT -0500)
Massena International-Richards

Weather History for KMSS - February, 2014

Change the Weather History Date:

Sunday, February 2, 2014

  Actual Average Record
Temperature  
Mean Temperature 30 °F 15 °F  
Max Temperature 35 °F 25 °F 51 °F (1970)
Min Temperature 24 °F 5 °F -28 °F (1962)
Degree Days  
Heating Degree Days 35 50  
Month to date heating degree days 78 100  
Since 1 July heating degree days 4860 4763  
Cooling Degree Days 0 0  
Month to date cooling degree days 0  
Year to date cooling degree days 0  
Moisture  
Dew Point 24 °F    
Average Humidity 83    
Maximum Humidity 96    
Minimum Humidity 69    
Precipitation  
Precipitation 0.09 in 0.06 in 0.78 in (1973)
Month to date precipitation 0.40 0.12  
Year to date precipitation 1.86 2.30  
Sea Level Pressure  
Sea Level Pressure 30.00 in    
Wind  
Wind Speed 8 mph (West)    
Max Wind Speed 16 mph    
Max Gust Speed 20 mph    
Visibility 7 miles    
Events Rain , Snow    
T = Trace of Precipitation, MM = Missing Value Source: NWS Daily Summary

Daily Weather History Graph

Daily Weather History Graph

Search for Another Location

Airport or City:

Trip Planner

Search our weather history database for the weather conditions in past years. The results will help you decide how hot, cold, wet, or windy it might be!

Date:

Astronomy

Feb. 02, 2014 Rise Set
Actual Time 7:17 AM EST 5:08 PM EST
Civil Twilight 6:46 AM EST 5:40 PM EST
Nautical Twilight 6:11 AM EST 6:15 PM EST
Astronomical Twilight 5:37 AM EST 6:49 PM EST
Moon 8:32 AM EST (2/2) 9:02 PM EST (2/2)
Length of Visible Light 10h 53m
Length of Day
9h 51m
Waxing Crescent, 11% of the Moon is Illuminated
Feb 2
Waxing Crescent
Feb 6
First Quarter
Feb 14
Full
Feb 22
Last Quarter
Mar 1
New

Hourly Weather History & Observations

Time (EST) Temp. Windchill Dew Point Humidity Pressure Visibility Wind Dir Wind Speed Gust Speed Precip Events Conditions
12:46 AM 35.1 °F 26.4 °F 32.0 °F 89% 29.81 in 5.0 mi SSW 12.7 mph - 0.01 in Rain Light Rain
12:53 AM 35.1 °F 25.5 °F 32.0 °F 89% 29.83 in 5.0 mi SSW 15.0 mph - 0.02 in Rain Light Rain
1:53 AM 34.0 °F 24.6 °F 32.0 °F 92% 29.83 in 4.0 mi SW 13.8 mph - 0.02 in Snow Light Snow
2:28 AM 34.0 °F 25.5 °F 30.9 °F 89% 29.82 in 2.5 mi SW 11.5 mph - 0.02 in Snow Light Snow
2:53 AM 33.1 °F 24.9 °F 30.9 °F 92% 29.84 in 2.0 mi SW 10.4 mph - 0.03 in Snow Light Snow
3:16 AM 33.1 °F 25.5 °F 30.9 °F 92% 29.83 in 1.8 mi SW 9.2 mph - 0.01 in Snow Light Snow
3:34 AM 33.1 °F 24.9 °F 30.9 °F 92% 29.83 in 2.0 mi SW 10.4 mph - 0.01 in Snow Light Snow
3:53 AM 33.1 °F 25.5 °F 30.9 °F 92% 29.85 in 2.0 mi SW 9.2 mph - 0.02 in Snow Light Snow
4:15 AM 34.0 °F 26.6 °F 32.0 °F 92% 29.83 in 3.0 mi SW 9.2 mph - 0.00 in   Overcast
4:53 AM 34.0 °F 26.6 °F 32.0 °F 92% 29.86 in 5.0 mi WSW 9.2 mph - 0.00 in   Overcast
5:53 AM 34.0 °F 26.6 °F 32.0 °F 92% 29.88 in 6.0 mi WSW 9.2 mph - N/A   Overcast
6:53 AM 32.0 °F 24.2 °F 28.9 °F 88% 29.90 in 8.0 mi WNW 9.2 mph - N/A   Overcast
7:42 AM 30.0 °F 21.1 °F 26.1 °F 85% 29.92 in 7.0 mi West 10.4 mph - N/A   Overcast
7:53 AM 30.0 °F 21.7 °F 25.0 °F 82% 29.95 in 7.0 mi WNW 9.2 mph - N/A   Overcast
8:08 AM 28.9 °F 19.8 °F 25.0 °F 85% 29.94 in 8.0 mi WNW 10.4 mph - N/A   Overcast
8:19 AM 28.9 °F 19.8 °F 25.0 °F 85% 29.95 in 8.0 mi West 10.4 mph - N/A   Overcast
8:53 AM 28.9 °F 20.4 °F 24.1 °F 82% 29.96 in 9.0 mi West 9.2 mph - N/A   Scattered Clouds
9:53 AM 28.0 °F 20.0 °F 21.9 °F 78% 29.97 in 10.0 mi West 8.1 mph - N/A   Partly Cloudy
10:17 AM 28.0 °F 18.1 °F 21.9 °F 78% 29.96 in 10.0 mi WNW 11.5 mph - N/A   Mostly Cloudy
10:29 AM 28.0 °F 19.3 °F 21.9 °F 78% 29.96 in 10.0 mi West 9.2 mph - N/A   Scattered Clouds
10:36 AM 28.0 °F 20.0 °F 21.9 °F 78% 29.97 in 10.0 mi WSW 8.1 mph - N/A   Mostly Cloudy
10:53 AM 28.0 °F 19.3 °F 21.9 °F 78% 30.00 in 10.0 mi West 9.2 mph - N/A   Mostly Cloudy
11:26 AM 28.0 °F 18.1 °F 21.0 °F 75% 29.98 in 10.0 mi West 11.5 mph - N/A   Scattered Clouds
11:53 AM 28.0 °F 18.6 °F 21.9 °F 78% 29.99 in 10.0 mi WSW 10.4 mph - N/A   Mostly Cloudy
12:01 PM 28.0 °F 20.8 °F 21.9 °F 78% 29.97 in 10.0 mi WSW 6.9 mph - N/A   Scattered Clouds
12:44 PM 28.0 °F 19.3 °F 21.0 °F 75% 29.96 in 10.0 mi West 9.2 mph - N/A   Mostly Cloudy
12:53 PM 28.0 °F 17.5 °F 21.0 °F 75% 30.00 in 10.0 mi West 12.7 mph - N/A   Mostly Cloudy
1:00 PM 28.0 °F 18.6 °F 21.0 °F 75% 29.98 in 10.0 mi West 10.4 mph - N/A   Mostly Cloudy
1:44 PM 28.0 °F 18.1 °F 19.9 °F 72% 29.98 in 10.0 mi WNW 11.5 mph - N/A   Partly Cloudy
1:53 PM 28.9 °F 20.4 °F 21.0 °F 72% 30.00 in 10.0 mi West 9.2 mph - N/A   Partly Cloudy
2:53 PM 28.9 °F 20.4 °F 19.0 °F 67% 30.03 in 10.0 mi West 9.2 mph - N/A   Mostly Cloudy
3:53 PM 28.9 °F 21.1 °F 19.0 °F 67% 30.05 in 10.0 mi WSW 8.1 mph - N/A   Overcast
4:53 PM 28.9 °F 21.9 °F 19.9 °F 69% 30.07 in 10.0 mi SW 6.9 mph - N/A   Overcast
5:53 PM 27.0 °F 19.5 °F 19.9 °F 75% 30.09 in 10.0 mi SW 6.9 mph - N/A   Overcast
6:53 PM 26.1 °F 20.5 °F 19.9 °F 78% 30.12 in 9.0 mi SW 4.6 mph - N/A   Overcast
7:53 PM 27.0 °F 21.6 °F 21.0 °F 78% 30.14 in 8.0 mi WSW 4.6 mph - N/A   Overcast
8:53 PM 25.0 °F 18.1 °F 21.0 °F 85% 30.14 in 8.0 mi SW 5.8 mph - N/A   Overcast
9:15 PM 26.1 °F 21.9 °F 21.9 °F 84% 30.13 in 2.0 mi West 3.5 mph - 0.00 in Snow Light Snow
9:27 PM 26.1 °F 21.9 °F 23.0 °F 88% 30.13 in 1.8 mi West 3.5 mph - 0.00 in Snow Light Snow
9:30 PM 26.1 °F 21.9 °F 23.0 °F 88% 30.13 in 2.0 mi West 3.5 mph - 0.00 in Snow Light Snow
9:53 PM 26.1 °F 21.9 °F 24.1 °F 92% 30.16 in 2.0 mi WNW 3.5 mph - 0.00 in Snow Light Snow
10:07 PM 27.0 °F 20.5 °F 23.0 °F 85% 30.15 in 3.0 mi NW 5.8 mph - 0.00 in Snow Light Snow
10:16 PM 27.0 °F 21.6 °F 23.0 °F 85% 30.15 in 4.0 mi NNW 4.6 mph - 0.00 in Snow Light Snow
10:28 PM 27.0 °F 23.0 °F 23.0 °F 85% 30.16 in 2.5 mi NNW 3.5 mph - 0.00 in Snow Light Snow
10:37 PM 27.0 °F 20.5 °F 23.0 °F 85% 30.16 in 3.0 mi NNW 5.8 mph - 0.00 in Snow Light Snow
10:53 PM 26.1 °F 21.9 °F 23.0 °F 88% 30.18 in 4.0 mi NNW 3.5 mph - 0.00 in Snow Light Snow
11:24 PM 26.1 °F 19.4 °F 21.0 °F 81% 30.18 in 6.0 mi NNW 5.8 mph - 0.00 in   Haze
11:53 PM 25.0 °F 16.3 °F 19.0 °F 78% 30.21 in 7.0 mi NNW 8.1 mph - 0.00 in   Overcast